Regional Weather Roundup
Issued by NWS

Home | Current Version | Previous Version | Text Only | Print | Product List | Glossary Off
Versions: 1 2 3 4 5 6 7 8 9 10 11 12 13 14 15 16 17 18 19 20 21 22 23 24 25 26 27 28 29 30 31 32 33 34 35 36 37 38 39 40 41 42 43 44 45 46 47 48 49 50

000
ASUS43 KOAX 310902
RWRNE

WEATHER ROUNDUP FOR NEBRASKA
NATIONAL WEATHER SERVICE OMAHA NE
400 AM CDT FRI JUL 31 2015

NOTES: SATELLITE DATA IS BEING USED TO AUGMENT CLOUD COVER ABOVE
       12000 FEET.
       "FAIR" INDICATES FEW OR NO CLOUDS BELOW 12,000 FEET WITH NO
       SIGNIFICANT WEATHER AND/OR OBSTRUCTIONS TO VISIBILITY.

  * THESE STATIONS DO NOT REPORT WEATHER SUCH AS RAIN...SNOW OR FOG.

NEZ001>004-019>022-054>056-311000-
NEBRASKA PANHANDLE

CITY           SKY/WX    TMP DP  RH WIND       PRES   REMARKS
SCOTTSBLUFF    CLEAR     62  58  86 N3        30.27S
ALLIANCE       CLEAR     57  55  93 SW9       30.25F
CHADRON        CLEAR     57  49  74 CALM      30.22S
KIMBALL        CLEAR     59  55  87 W6        30.31S
SIDNEY         CLEAR     56  54  93 W9        30.29F
$$

NEZ057>060-069>072-079>082-311000-
SOUTHWEST NEBRASKA

CITY           SKY/WX    TMP DP  RH WIND       PRES   REMARKS
NORTH PLATTE   CLEAR     63  60  90 E3        30.20F
IMPERIAL       CLEAR     60  56  86 N3        30.23F
MCCOOK         CLEAR     67  63  87 SW7       30.20F
$$

NEZ005>010-023>029-035>040-094-311000-
NORTH CENTRAL NEBRASKA

CITY           SKY/WX    TMP DP  RH WIND       PRES   REMARKS
VALENTINE      CLEAR     62  51  67 MISG      30.18F
AINSWORTH      CLEAR     63  56  78 CALM      30.18F
BROKEN BOW     CLEAR     64  61  90 CALM      30.19F
O`NEILL        CLEAR     64  63  96 W3        30.16F
ORD            CLEAR     64  62  93 CALM      30.17R
$$

NEZ041-046>049-061>064-073>077-083>087-311000-
SOUTH CENTRAL NEBRASKA

CITY           SKY/WX    TMP DP  RH WIND       PRES   REMARKS
GRAND ISLAND   CLEAR     71  67  87 SW8       30.18R
AURORA         CLEAR     69  68  96 SW8       30.17S
HASTINGS       CLEAR     69  66  90 S5        30.18F
KEARNEY *      CLEAR     70  64  83 SW6       30.19S
$$

NEZ011>018-030>034-042>045-311000-
NORTHEAST NEBRASKA

CITY           SKY/WX    TMP DP  RH WIND       PRES   REMARKS
NORFOLK        CLEAR     68  63  84 SE9       30.15S
BLAIR          RAIN      71  61  71 N25G35    30.17R
COLUMBUS *     CLEAR     63  57  82 CALM      30.16S
FREMONT        CLOUDY    72  59  63 N9G20     30.20R
TEKAMAH        CLOUDY    70  64  81 SW8       30.12F
$$

NEZ050>053-065>068-078-088>093-311000-
SOUTHEAST NEBRASKA

CITY           SKY/WX    TMP DP  RH WIND       PRES   REMARKS
LINCOLN        CLEAR     70  63  78 SW3       30.15F
OMAHA EPPLEY   MOCLDY    70  66  87 N10G18    30.17R THUNDER
FALLS CITY     CLEAR     67  62  84 S5        30.14F
$$

NEZ044-045-051>053-067-311000-
OMAHA AREA

CITY           SKY/WX    TMP DP  RH WIND       PRES   REMARKS
OMAHA EPPLEY   MOCLDY    70  66  87 N10G18    30.17R THUNDER
BLAIR          RAIN      71  61  71 N25G35    30.17R
FREMONT        CLOUDY    72  59  63 N9G20     30.20R
OFFUTT AFB     PTCLDY    68  65  92 NE2       30.14R
$$


USA.gov is the U.S. government's official web portal to all federal, state and local government web resources and services.